Weather History for Farmington, NM

Change the Weather History Date:

Sunday, August 17, 2014

  Actual Average Record
Temperature  
Mean Temperature 74 °F -  
Max Temperature 93 °F 86 °F 98 °F (2002)
Min Temperature 55 °F 57 °F 52 °F (1987)
Cooling Degree Days 9    
Growing Degree Days 24 (Base 50)    
Moisture  
Dew Point 40 °F    
Average Humidity 29    
Maximum Humidity 67    
Minimum Humidity 6    
Precipitation  
Precipitation 0.00 in - - ()
Sea Level Pressure  
Sea Level Pressure 29.97 in    
Wind  
Wind Speed 7 mph (ENE)    
Max Wind Speed 16 mph    
Max Gust Speed 23 mph    
Visibility 10 miles    
Events      
Averages and records for this station are not official NWS values.
T = Trace of Precipitation, MM = Missing Value Source: NWS Daily Summary

Daily Weather History Graph

Daily Weather History Graph

Search for Another Location

Airport:

Trip Planner

Search our weather history database for the weather conditions in past years. The results will help you decide how hot, cold, wet, or windy it might be!

Date:

Astronomy

Aug. 17, 2014 Rise Set
Actual Time 6:31 AM MDT 8:01 PM MDT
Civil Twilight 6:04 AM MDT 8:28 PM MDT
Nautical Twilight 5:31 AM MDT 9:01 PM MDT
Astronomical Twilight 4:56 AM MDT 9:35 PM MDT
Moon 12:00 AM MDT (8/17) 2:08 PM MDT (8/17)
Length of Visible Light 14h 24m
Length of Day
13h 29m
Waning Gibbous, 48% of the Moon is Illuminated
Aug 17
Waning Gibbous
Aug 25
New
Sep 2
First Quarter
Sep 8
Full
Sep 15
Last Quarter

Hourly Weather History & Observations

Time (MDT) Temp. Dew Point Humidity Pressure Visibility Wind Dir Wind Speed Gust Speed Precip Events Conditions
1:53 AM 62.1 °F 48.0 °F 60% 29.99 in 10.0 mi NE 4.6 mph - N/A   Clear
2:53 AM 64.9 °F 46.0 °F 50% 29.97 in 10.0 mi East 9.2 mph - N/A   Clear
3:53 AM 64.0 °F 46.0 °F 52% 30.01 in 10.0 mi East 8.1 mph - N/A   Clear
4:53 AM 63.0 °F 44.1 °F 50% 30.02 in 10.0 mi ENE 6.9 mph - N/A   Clear
5:53 AM 57.9 °F 45.0 °F 62% 30.04 in 10.0 mi ENE 5.8 mph - N/A   Clear
6:53 AM 57.0 °F 46.0 °F 67% 30.05 in 10.0 mi NE 5.8 mph - N/A   Clear
7:53 AM 64.9 °F 45.0 °F 48% 30.05 in 10.0 mi East 8.1 mph - N/A   Clear
8:53 AM 71.1 °F 45.0 °F 39% 30.07 in 10.0 mi East 10.4 mph - N/A   Clear
9:53 AM 77.0 °F 46.9 °F 34% 30.05 in 10.0 mi ESE 9.2 mph - N/A   Clear
10:53 AM 82.0 °F 45.0 °F 27% 30.04 in 10.0 mi East 8.1 mph - N/A   Clear
11:53 AM 82.9 °F 45.0 °F 26% 30.04 in 10.0 mi Variable 3.5 mph - N/A   Clear
12:53 PM 88.0 °F 44.1 °F 22% 30.00 in 10.0 mi South 6.9 mph - N/A   Clear
1:53 PM 90.0 °F 39.0 °F 17% 29.98 in 10.0 mi Variable 4.6 mph - N/A   Clear
2:53 PM 91.0 °F 39.0 °F 16% 29.95 in 10.0 mi SSW 6.9 mph - N/A   Scattered Clouds
3:53 PM 91.9 °F 39.0 °F 16% 29.92 in 10.0 mi North - - N/A   Clear
4:53 PM 93.0 °F 36.0 °F 13% 29.89 in 10.0 mi WSW 16.1 mph - N/A   Clear
5:53 PM 91.9 °F 33.1 °F 12% 29.89 in 10.0 mi WSW 9.2 mph 23.0 mph N/A   Clear
6:53 PM 91.9 °F 30.9 °F 11% 29.89 in 10.0 mi NW 11.5 mph - N/A   Clear
7:53 PM 88.0 °F 28.9 °F 12% 29.88 in 10.0 mi WNW 11.5 mph - N/A   Clear
8:53 PM 81.0 °F 28.0 °F 14% 29.90 in 10.0 mi WNW 5.8 mph - N/A   Clear
9:53 PM 80.1 °F 28.0 °F 15% 29.90 in 10.0 mi Calm Calm - N/A   Clear
10:53 PM 73.0 °F 30.9 °F 21% 29.92 in 10.0 mi East 5.8 mph - N/A   Clear
11:53 PM 69.1 °F 37.9 °F 32% 29.94 in 10.0 mi NE 6.9 mph - N/A   Clear